When you browse on this site, cookies collect data to enhance your experience and personalize the content and advertising you see.
Visit our Privacy Policy to learn more. By continuing to use the site, you agree to this use of cookies and data.
  • In Hungary
  • List of Countries
  • For 7 days
  • Water Temperature
  • Satellite Maps
  • Weather Map
  • News
  • Weather Widgets
  • user-avatar
    Login

    Hourly Weather La Esperanza

    Today, 21 April, Sunday

    Time Temperature Precipitation Wind Pressure Humidity
    00:00 +12°C° 0 mm 2 mps 618 mmHg 64%
    01:00 +12°C° 0 mm 2 mps 617 mmHg 63%
    02:00 +12°C° 0 mm 2 mps 617 mmHg 61%
    03:00 +12°C° 0 mm 2 mps 617 mmHg 60%
    04:00 +12°C° 0 mm 2 mps 617 mmHg 61%
    05:00 +12°C° 0 mm 2 mps 617 mmHg 61%
    06:00 +12°C° 0 mm 2 mps 617 mmHg 62%
    07:00 +15°C° 0 mm 2 mps 618 mmHg 55%
    08:00 +18°C° 0 mm 2 mps 620 mmHg 48%
    09:00 +21°C° 0 mm 2 mps 621 mmHg 41%
    10:00 +24°C° 0 mm 2 mps 622 mmHg 39%
    11:00 +26°C° 0 mm 2 mps 622 mmHg 36%
    12:00 +28°C° 0 mm 2 mps 622 mmHg 34%
    13:00 +27°C° 0 mm 2 mps 622 mmHg 36%
    14:00 +27°C° 0 mm 2 mps 621 mmHg 39%
    15:00 +26°C° 0 mm 2 mps 620 mmHg 41%
    16:00 +24°C° 0.1 mm 2 mps 619 mmHg 48%
    17:00 +21°C° 0.1 mm 2 mps 619 mmHg 56%
    18:00 +20°C° 0.1 mm 2 mps 618 mmHg 63%
    19:00 +19°C° 0.1 mm 2 mps 618 mmHg 71%
    20:00 +17°C° 0.1 mm 2 mps 618 mmHg 78%
    21:00 +16°C° 0.1 mm 2 mps 619 mmHg 85%
    22:00 +16°C° 0.1 mm 1 mps 619 mmHg 87%
    23:00 +16°C° 0.1 mm 1 mps 619 mmHg 88%

    Tomorrow, 22 April, Monday

    Time Temperature Precipitation Wind Pressure Humidity
    00:00 +15°C° 0.1 mm 1 mps 618 mmHg 89%
    01:00 +15°C° 0 mm 1 mps 618 mmHg 89%
    02:00 +15°C° 0 mm 1 mps 617 mmHg 90%
    03:00 +15°C° 0 mm 1 mps 617 mmHg 90%
    04:00 +15°C° 0 mm 1 mps 617 mmHg 90%
    05:00 +14°C° 0 mm 1 mps 617 mmHg 91%
    06:00 +14°C° 0 mm 1 mps 617 mmHg 91%
    07:00 +18°C° 0 mm 1 mps 618 mmHg 79%
    08:00 +21°C° 0 mm 1 mps 620 mmHg 67%
    09:00 +24°C° 0 mm 1 mps 621 mmHg 55%
    10:00 +25°C° 0 mm 1 mps 621 mmHg 51%
    11:00 +26°C° 0 mm 1 mps 621 mmHg 46%
    12:00 +27°C° 0 mm 1 mps 621 mmHg 42%
    13:00 +26°C° 0.1 mm 1 mps 620 mmHg 46%
    14:00 +25°C° 0.1 mm 1 mps 619 mmHg 49%
    15:00 +24°C° 0.1 mm 1 mps 618 mmHg 53%
    16:00 +23°C° 0.2 mm 1 mps 617 mmHg 58%
    17:00 +22°C° 0.2 mm 1 mps 617 mmHg 63%
    18:00 +21°C° 0.2 mm 1 mps 617 mmHg 68%
    19:00 +20°C° 0.2 mm 1 mps 617 mmHg 74%
    20:00 +19°C° 0.2 mm 1 mps 617 mmHg 81%
    21:00 +16°C° 0.2 mm 1 mps 618 mmHg 87%
    22:00 +16°C° 0.2 mm 1 mps 617 mmHg 89%
    23:00 +16°C° 0.2 mm 1 mps 617 mmHg 90%

    Day after tomorrow, 23 April, Tuesday

    Time Temperature Precipitation Wind Pressure Humidity
    00:00 +16°C° 0.2 mm 1 mps 617 mmHg 92%
    01:00 +16°C° 0.1 mm 1 mps 617 mmHg 92%
    02:00 +16°C° 0.1 mm 1 mps 617 mmHg 92%
    03:00 +16°C° 0.1 mm 1 mps 616 mmHg 92%
    04:00 +16°C° 0.1 mm 1 mps 616 mmHg 92%
    05:00 +16°C° 0.1 mm 1 mps 616 mmHg 92%
    06:00 +14°C° 0.1 mm 0 mps 617 mmHg 92%
    07:00 +17°C° 0 mm 0 mps 618 mmHg 81%
    08:00 +19°C° 0 mm 0 mps 619 mmHg 70%
    09:00 +24°C° 0 mm 1 mps 621 mmHg 58%
    10:00 +25°C° 0 mm 1 mps 620 mmHg 53%
    11:00 +26°C° 0 mm 1 mps 620 mmHg 47%
    12:00 +27°C° 0 mm 1 mps 620 mmHg 41%
    13:00 +26°C° 0.1 mm 1 mps 619 mmHg 44%
    14:00 +25°C° 0.1 mm 1 mps 618 mmHg 47%
    15:00 +24°C° 0.1 mm 1 mps 617 mmHg 50%
    16:00 +23°C° 0.1 mm 1 mps 617 mmHg 54%
    17:00 +22°C° 0.1 mm 1 mps 617 mmHg 58%
    18:00 +21°C° 0.1 mm 1 mps 616 mmHg 61%
    19:00 +20°C° 0 mm 1 mps 617 mmHg 69%
    20:00 +19°C° 0 mm 1 mps 617 mmHg 76%
    21:00 +18°C° 0 mm 1 mps 617 mmHg 84%
    22:00 +16°C° 0.1 mm 1 mps 617 mmHg 86%
    23:00 +16°C° 0.1 mm 1 mps 617 mmHg 87%

    24 April, Wednesday

    Time Temperature Precipitation Wind Pressure Humidity
    00:00 +16°C° 0.1 mm 1 mps 616 mmHg 89%
    01:00 +16°C° 0.1 mm 1 mps 616 mmHg 90%
    02:00 +15°C° 0.1 mm 1 mps 616 mmHg 91%
    03:00 +15°C° 0.1 mm 1 mps 615 mmHg 92%
    04:00 +14°C° 0 mm 0 mps 616 mmHg 91%
    05:00 +14°C° 0 mm 0 mps 616 mmHg 91%
    06:00 +14°C° 0 mm 0 mps 616 mmHg 91%
    07:00 +17°C° 0 mm 0 mps 617 mmHg 81%
    08:00 +19°C° 0 mm 0 mps 619 mmHg 72%
    09:00 +21°C° 0 mm 0 mps 620 mmHg 62%
    10:00 +23°C° 0.1 mm 0 mps 620 mmHg 55%
    11:00 +26°C° 0.1 mm 1 mps 620 mmHg 49%
    12:00 +28°C° 0.1 mm 1 mps 620 mmHg 42%
    13:00 +27°C° 0.1 mm 1 mps 619 mmHg 43%
    14:00 +26°C° 0.1 mm 1 mps 619 mmHg 44%
    15:00 +26°C° 0.1 mm 1 mps 618 mmHg 45%
    16:00 +24°C° 0.2 mm 1 mps 617 mmHg 53%
    17:00 +23°C° 0.2 mm 1 mps 617 mmHg 60%
    18:00 +21°C° 0.2 mm 1 mps 617 mmHg 68%
    19:00 +20°C° 0.3 mm 1 mps 617 mmHg 73%
    20:00 +17°C° 0.3 mm 0 mps 617 mmHg 79%
    21:00 +16°C° 0.3 mm 0 mps 617 mmHg 85%
    22:00 +16°C° 0.1 mm 0 mps 616 mmHg 86%
    23:00 +16°C° 0.1 mm 0 mps 616 mmHg 88%

    25 April, Thursday

    Time Temperature Precipitation Wind Pressure Humidity
    00:00 +15°C° 0.1 mm 0 mps 616 mmHg 89%
    01:00 +15°C° 0.1 mm 0 mps 616 mmHg 90%
    02:00 +15°C° 0.1 mm 0 mps 615 mmHg 90%
    03:00 +15°C° 0.1 mm 0 mps 615 mmHg 90%
    04:00 +16°C° 0 mm 1 mps 615 mmHg 91%
    05:00 +16°C° 0 mm 1 mps 616 mmHg 92%
    06:00 +15°C° 0 mm 1 mps 616 mmHg 92%
    07:00 +19°C° 0 mm 1 mps 617 mmHg 81%
    08:00 +20°C° 0 mm 2 mps 619 mmHg 71%
    09:00 +23°C° 0 mm 2 mps 620 mmHg 60%
    10:00 +25°C° 0 mm 2 mps 620 mmHg 55%
    11:00 +26°C° 0 mm 2 mps 620 mmHg 51%
    12:00 +27°C° 0 mm 2 mps 620 mmHg 46%
    13:00 +26°C° 0.1 mm 2 mps 619 mmHg 49%
    14:00 +26°C° 0.1 mm 2 mps 619 mmHg 51%
    15:00 +25°C° 0.1 mm 2 mps 618 mmHg 54%
    16:00 +24°C° 0.2 mm 2 mps 617 mmHg 62%
    17:00 +21°C° 0.2 mm 2 mps 617 mmHg 70%
    18:00 +20°C° 0.2 mm 2 mps 617 mmHg 78%
    19:00 +20°C° 0.1 mm 1 mps 617 mmHg 83%
    20:00 +19°C° 0.1 mm 1 mps 617 mmHg 88%
    21:00 +18°C° 0.1 mm 1 mps 617 mmHg 93%
    22:00 +18°C° 0.2 mm 1 mps 617 mmHg 93%
    23:00 +18°C° 0.2 mm 1 mps 617 mmHg 93%

    26 April, Friday

    Time Temperature Precipitation Wind Pressure Humidity
    00:00 +16°C° 0.2 mm 0 mps 617 mmHg 93%
    01:00 +16°C° 0.3 mm 0 mps 617 mmHg 92%
    02:00 +16°C° 0.3 mm 0 mps 616 mmHg 91%
    03:00 +16°C° 0.3 mm 0 mps 616 mmHg 90%
    04:00 +16°C° 0.4 mm 0 mps 616 mmHg 90%
    05:00 +16°C° 0.4 mm 0 mps 617 mmHg 90%
    06:00 +16°C° 0.4 mm 0 mps 617 mmHg 89%
    07:00 +18°C° 0.3 mm 0 mps 618 mmHg 81%
    08:00 +22°C° 0.3 mm 1 mps 619 mmHg 72%
    09:00 +24°C° 0.3 mm 1 mps 620 mmHg 63%
    10:00 +24°C° 0.3 mm 1 mps 620 mmHg 62%
    11:00 +24°C° 0.3 mm 1 mps 619 mmHg 61%
    12:00 +24°C° 0.3 mm 1 mps 619 mmHg 61%
    13:00 +24°C° 0.3 mm 1 mps 619 mmHg 59%
    14:00 +24°C° 0.3 mm 1 mps 618 mmHg 58%
    15:00 +25°C° 0.3 mm 1 mps 618 mmHg 56%
    16:00 +24°C° 0.2 mm 1 mps 618 mmHg 60%
    17:00 +23°C° 0.2 mm 1 mps 618 mmHg 64%
    18:00 +22°C° 0.2 mm 1 mps 617 mmHg 67%
    19:00 +20°C° 0 mm 1 mps 617 mmHg 71%
    20:00 +19°C° 0 mm 1 mps 617 mmHg 76%
    21:00 +18°C° 0 mm 1 mps 617 mmHg 80%
    22:00 +16°C° 0 mm 1 mps 617 mmHg 81%
    23:00 +16°C° 0 mm 1 mps 616 mmHg 83%
    Show more